CAPE
1132 1126 1281 1139 1356 1338 1062 878 1202 1551 1179 1496 1822 1992 2042 1993 2089 2338 2425 2623 2722 2763 2834 2893 2993 3153 3137 2976 2862 2741 2415 1949 1460 1326 1312 1189 510 39 3 164 329 19
1168 1133 1290 1240 1080 1420 1432 1029 1015 1520 1556 1414 1786 1925 2046 2032 2014 2268 2328 2596 2711 2757 2835 2904 2996 3080 3121 3070 2913 2753 2586 2301 2189 1994 1632 1406 1006 92 81 3 439 636
1178 1142 1199 1315 1217 1168 1510 1525 1207 1264 1679 1588 1789 1947 2022 2052 2023 2214 2277 2467 2677 2730 2825 2926 3019 3107 3118 3118 2994 2918 2759 2510 2336 2171 1899 1721 1338 931 36 3 9 575
1214 1208 1203 1309 1346 1269 1365 1734 1596 1362 1440 1723 1768 2016 2039 2092 2030 2129 2279 2702 2603 2685 2763 2943 3014 3099 3176 3163 3090 2929 2780 2577 2432 2317 2192 2050 1816 1384 894 13 14 1
1239 1278 1278 1310 1404 1412 1450 1777 1861 1638 1448 1558 1755 1996 2125 2168 2141 2111 2213 2410 2541 2665 2693 2883 3018 3058 3151 3203 3139 2962 2815 2684 2548 2444 2350 2219 2040 1736 1256 947 354 23
1263 1293 1344 1368 1472 1569 1583 1765 2012 1925 1678 1512 1661 1933 2205 2273 2259 2200 2167 2278 2532 2660 2702 2762 2966 3060 3105 3143 3111 2965 2937 2867 2773 2641 2515 2355 2156 1930 1634 1295 928 554
1339 1336 1392 1423 1499 1661 1756 1788 2029 2154 1990 1726 1594 1866 2200 2381 2390 2317 2249 2224 2424 2617 2709 2735 2845 2988 3043 3086 3071 3024 2942 2894 2852 2758 2623 2453 2244 2031 1773 1591 1354 1028
1467 1472 1482 1508 1531 1640 1839 1913 1990 2211 2249 2104 1836 1700 2091 2376 2505 2434 2372 2323 2368 2539 2671 2752 2806 2875 2962 3018 3031 2982 2938 2896 2854 2762 2666 2518 2320 2121 1874 1707 1622 1441
1573 1599 1632 1653 1654 1660 1777 1944 2021 2122 2303 2306 2182 1845 1855 2184 2423 2560 2486 2428 2415 2464 2579 2672 2738 2793 2872 2934 2970 2991 2962 2905 2842 2779 2702 2570 2394 2238 2029 1826 1718 1626
1696 1680 1706 1765 1790 1782 1797 1902 2049 2066 2235 2387 2286 2071 1736 2002 2172 2267 2440 2466 2424 2468 2522 2587 2665 2736 2794 2870 2896 2924 2973 2969 2933 2866 2776 2620 2449 2310 2150 1944 1818 1741
1850 1810 1785 1806 1890 1950 1953 1955 2019 2072 2099 2338 2425 2258 1986 1965 2117 2198 2217 2298 2318 2352 2506 2568 2620 2729 2802 2871 2916 2899 2911 2942 2966 2945 2870 2770 2611 2432 2233 2027 1876 1769
1922 1943 1916 1893 1914 1997 2089 2090 2086 2105 2073 2095 2358 2430 2317 2177 2099 2192 2281 2308 2320 2296 2359 2546 2630 2711 2833 2913 2973 2978 2937 2925 2946 2960 2944 2882 2796 2626 2389 2186 2009 1862
1951 1993 2012 1992 1978 2019 2114 2199 2206 2187 2145 2057 2078 2324 2410 2370 2270 2151 2244 2405 2462 2433 2367 2416 2604 2726 2835 2934 3012 3081 3087 3050 3012 2986 2970 2942 2905 2825 2642 2427 2251 2087
2027 2035 2057 2065 2056 2064 2127 2230 2294 2279 2230 2139 1997 2043 2252 2348 2381 2311 2200 2270 2515 2598 2555 2449 2457 2627 2797 2909 2999 3097 3181 3182 3146 3090 3045 2988 2920 2891 2838 2711 2557 2392
2128 2113 2112 2129 2140 2138 2154 2229 2320 2355 2303 2221 2080 1964 1993 2154 2253 2347 2348 2238 2192 2407 2640 2638 2518 2466 2583 2792 2932 3014 3104 3184 3199 3185 3139 3081 2992 2885 2829 2822 2780 2687
2199 2219 2210 2200 2205 2206 2203 2224 2287 2347 2342 2275 2164 2028 1905 1922 2036 2131 2244 2300 2233 2102 2128 2439 2636 2577 2489 2541 2782 2904 2962 3024 3102 3149 3161 3119 3056 2979 2873 2790 2776 2764
2208 2280 2293 2278 2268 2252 2240 2229 2233 2279 2299 2267 2196 2095 1948 1843 1873 1960 2037 2144 2232 2201 2070 1956 2227 2648 2724 2608 2560 2706 2806 2872 2921 2990 3055 3094 3064 3040 2977 2886 2786 2737
2349 2320 2345 2337 2302 2294 2265 2243 2212 2188 2190 2187 2124 2077 2025 1897 1779 1820 1926 2013 2081 2142 2150 2068 1957 2032 2524 2801 2771 2655 2634 2657 2747 2806 2875 2957 3012 3025 3006 2939 2846 2770
2640 2538 2381 2382 2347 2309 2276 2252 2221 2164 2114 2083 2055 1977 1926 1944 1906 1780 1743 1846 2016 2099 2132 2176 2152 2041 2036 2383 2766 2860 2807 2728 2658 2692 2736 2806 2897 2956 2975 2954 2889 2815
3030 2972 2883 2753 2547 2378 2320 2263 2212 2166 2100 2032 1986 1898 1801 1778 1884 1886 1778 1696 1782 1992 2138 2174 2254 2327 2296 2223 2351 2676 2892 2926 2817 2723 2714 2730 2780 2844 2890 2906 2891 2846
3404 3347 3281 3192 3058 2828 2497 2366 2289 2218 2134 2053 1959 1862 1744 1670 1662 1789 1820 1781 1702 1719 1900 2110 2202 2292 2452 2528 2489 2452 2612 2836 2876 2787 2730 2710 2717 2775 2856 2901 2934 2932
3661 3606 3546 3462 3360 3222 2994 2660 2439 2370 2265 2139 2026 1922 1794 1651 1553 1701 1841 1871 1800 1706 1714 1874 2073 2195 2338 2520 2682 2728 2683 2684 2771 2773 2743 2732 2753 2769 2794 2867 2951 3010
3828 3771 3699 3628 3534 3415 3261 3053 2728 2511 2435 2299 2152 2016 1930 1828 1730 1724 1938 2092 2121 2021 1878 1897 2030 2194 2358 2448 2578 2746 2826 2857 2830 2787 2760 2762 2799 2804 2797 2782 2810 2879
3918 3864 3814 3746 3642 3524 3401 3252 3050 2757 2526 2469 2362 2216 2076 1947 1877 1798 1855 2142 2326 2402 2339 2213 2183 2313 2516 2646 2677 2728 2818 2848 2863 2853 2825 2821 2829 2824 2823 2800 2769 2764
3954 3944 3892 3815 3722 3609 3504 3376 3220 3027 2780 2561 2511 2388 2276 2132 2034 1959 1918 2003 2252 2513 2655 2620 2537 2494 2606 2838 2983 3007 2984 2986 2967 2942 2934 2952 2952 2949 2943 2941 2935 2880
3927 3943 3912 3850 3771 3684 3588 3471 3340 3182 3018 2783 2547 2469 2390 2309 2215 2144 2130 2128 2122 2277 2570 2848 2924 2923 2858 2834 2958 3147 3211 3236 3196 3160 3129 3116 3109 3093 3095 3178 3257 3342
Wind_Speed
4 5 6 7 6 5 3 3 4 4 4 4 5 8 8 9 8 9 10 11 13 14 14 15 14 15 15 15 14 14 14 14 13 11 11 11 10 nan nan 10 9 nan
4 5 7 7 7 7 6 5 4 4 4 5 6 7 7 5 7 7 8 9 10 12 12 13 14 15 15 15 15 16 16 15 15 11 12 11 11 nan nan nan 9 8
5 6 6 6 6 4 4 6 5 5 5 6 6 6 4 4 5 5 6 8 9 10 11 11 12 14 15 15 16 16 17 17 17 15 13 13 11 10 nan nan nan 9
5 6 6 6 6 5 6 6 7 6 5 6 6 5 3 2 3 5 5 7 8 9 10 11 12 13 14 15 16 16 17 17 17 17 15 12 11 10 9 nan nan nan
6 7 8 7 7 7 7 8 7 6 5 5 4 4 2 1 3 5 6 6 8 9 10 11 12 13 14 15 17 16 16 16 16 17 17 16 13 12 10 9 8 nan
9 9 8 7 7 7 8 9 8 7 5 4 3 2 0 3 5 7 8 9 9 11 12 12 13 13 14 15 16 16 16 16 16 17 17 17 15 13 11 10 10 9
6 8 7 7 7 8 9 9 9 7 5 4 4 2 3 5 7 9 10 11 12 13 14 14 14 14 14 15 15 16 16 16 17 18 18 17 17 16 13 12 12 11
6 8 8 8 7 8 8 9 8 7 5 4 1 1 5 6 8 9 11 12 13 14 14 15 15 15 15 16 16 16 16 16 16 18 18 17 18 18 17 14 13 13
7 8 8 7 7 8 8 8 8 7 6 4 2 3 4 6 7 9 10 12 12 13 13 14 15 15 15 16 16 16 16 16 16 18 19 19 20 20 19 16 14 14
7 8 7 7 7 8 7 7 7 7 6 4 3 4 4 5 6 7 8 9 10 11 12 13 14 15 16 16 16 16 16 16 16 17 18 19 19 20 20 18 16 15
6 7 7 7 7 8 6 6 6 5 5 3 3 3 4 5 4 6 6 8 8 9 11 12 14 16 17 16 15 15 15 15 15 16 16 16 17 19 21 20 17 15
4 5 5 5 5 5 4 4 4 3 3 2 2 3 4 5 6 7 8 9 10 10 11 12 13 14 16 17 17 15 13 12 13 13 14 15 15 17 21 21 17 15
2 3 4 3 3 3 4 4 3 2 1 1 3 4 5 6 7 8 8 10 11 12 12 13 13 14 14 15 15 15 13 11 10 11 12 13 14 17 18 19 17 14
3 4 5 4 5 4 3 3 2 1 0 1 3 5 6 7 7 8 8 9 11 12 13 13 13 13 13 13 14 14 12 10 10 10 10 11 13 15 16 15 14 13
6 6 7 6 5 5 3 2 1 1 1 2 4 5 5 7 7 7 7 8 9 11 13 13 13 13 13 13 12 12 11 10 10 9 9 10 11 12 12 12 11 11
6 7 7 7 5 4 4 3 2 2 3 4 5 6 7 7 7 7 8 8 9 10 11 12 12 11 13 17 15 11 10 9 9 9 9 8 8 7 7 8 10 10
6 6 7 6 5 5 4 3 3 3 3 4 4 5 7 7 7 7 8 8 10 11 11 10 10 10 15 15 16 16 11 9 8 8 7 6 6 6 7 8 8 10
5 6 6 5 6 5 5 5 5 5 5 5 5 5 5 5 6 7 7 8 9 10 10 9 8 11 14 15 16 16 14 9 6 5 5 6 6 8 8 7 9 9
5 6 6 6 6 6 7 8 7 6 6 5 5 5 5 5 5 6 6 7 8 9 8 8 7 11 13 14 14 15 14 11 5 5 6 7 7 8 9 9 9 9
5 6 7 7 8 9 10 9 8 7 7 6 6 7 5 4 3 4 4 6 7 7 6 6 7 8 12 12 12 13 13 11 7 8 8 7 8 9 9 10 11 11
6 7 7 8 10 10 11 10 9 8 8 8 8 6 5 4 3 2 3 5 6 5 3 3 3 8 9 12 12 12 13 11 7 7 6 6 8 9 10 12 13 13
6 6 6 8 9 10 10 11 10 9 9 9 7 6 6 5 3 1 1 2 3 4 3 4 3 7 9 10 11 11 12 6 6 6 7 7 8 9 11 11 13 14
8 8 8 8 9 9 9 10 9 8 8 10 7 5 5 4 2 1 1 0 2 3 3 3 4 3 8 10 11 13 10 6 6 5 5 6 7 9 10 11 12 14
11 11 11 10 10 10 9 8 9 9 10 11 7 5 4 3 4 4 3 2 0 1 1 1 2 1 8 10 13 16 15 10 8 8 8 9 9 10 12 13 15 17
13 13 13 12 11 10 9 9 9 10 12 13 9 8 6 8 9 7 5 4 3 3 1 1 1 4 11 14 17 19 19 14 14 13 13 13 14 14 15 16 18 20
14 15 14 13 12 11 10 10 10 12 14 13 10 10 9 10 9 8 6 7 8 7 7 4 3 6 11 16 19 21 24 19 17 16 14 15 16 17 17 19 20 21
Wind_Direction
125 139 152 161 167 164 140 128 134 124 130 129 100 92 75 67 58 44 37 35 31 28 27 23 18 19 22 20 15 12 10 10 9 8 7 3 9 nan nan 30 28 nan
125 137 160 166 172 173 160 146 138 122 130 122 105 98 91 72 58 36 25 22 19 18 14 11 7 4 7 11 10 9 10 8 8 4 1 2 4 nan nan nan 17 23
150 151 154 160 158 141 138 148 144 128 125 117 119 114 107 78 49 39 18 5 4 4 0 358 354 351 352 356 358 1 3 6 9 4 359 1 356 357 nan nan nan 3
144 147 155 155 155 137 139 150 145 138 131 140 118 117 112 78 31 18 6 354 347 346 345 342 345 341 340 341 342 350 354 359 4 0 1 356 353 351 350 nan nan nan
155 161 164 163 153 139 141 139 136 133 120 113 139 139 124 16 347 350 341 338 333 333 329 334 332 333 331 330 330 334 339 346 349 354 358 358 353 344 343 331 338 nan
167 165 167 163 145 134 134 136 140 139 133 135 109 185 233 322 321 327 327 327 325 325 324 324 323 325 323 323 321 324 325 331 336 341 351 358 353 343 332 331 333 342
160 165 161 159 143 137 137 139 147 148 143 135 187 220 277 308 315 320 320 322 322 320 322 321 321 322 317 314 314 317 317 322 322 329 342 350 348 347 337 330 338 341
161 166 164 163 147 142 136 138 146 153 157 176 177 260 276 299 309 308 310 316 317 319 320 321 320 321 317 312 314 314 316 311 316 323 332 341 342 348 345 337 333 343
178 172 172 163 152 154 143 144 151 160 178 185 208 241 262 282 295 304 309 314 317 318 320 320 321 320 317 316 317 319 320 318 318 323 329 335 340 349 350 340 332 340
182 177 176 171 166 169 157 153 160 169 189 200 226 248 279 284 296 309 309 316 322 321 322 322 322 320 318 320 325 326 326 327 326 327 330 334 338 343 347 344 343 338
183 185 182 179 179 185 166 163 164 178 200 215 244 275 299 297 303 308 317 321 325 328 326 324 325 323 321 322 324 328 335 333 331 329 330 333 334 337 342 348 345 343
190 193 189 185 187 187 174 177 186 194 213 226 268 308 310 315 320 314 321 330 331 334 333 330 325 322 323 325 328 330 333 335 331 329 329 329 329 334 341 346 348 347
217 201 209 203 197 190 191 197 198 196 235 321 309 327 330 328 327 327 321 327 334 334 337 336 332 327 325 325 325 326 330 333 333 332 330 327 329 336 342 346 349 347
255 233 227 216 210 208 201 205 201 188 310 333 323 345 346 342 338 339 330 323 330 332 337 333 329 327 327 327 325 326 328 332 336 335 338 334 332 337 343 348 352 351
254 246 238 232 228 221 217 216 215 239 306 336 342 352 346 349 342 338 332 328 327 329 332 328 327 330 327 330 330 333 332 340 344 345 344 346 347 349 350 355 359 359
262 257 256 253 244 237 234 242 250 287 324 346 355 355 353 346 341 335 331 331 332 334 331 325 328 327 344 356 350 339 342 344 345 352 358 4 15 22 18 6 10 9
258 264 267 275 269 255 253 271 303 299 312 331 344 348 353 346 341 342 334 328 335 336 338 332 332 338 2 358 5 8 357 356 2 7 10 27 39 41 38 27 18 16
257 261 267 276 273 285 289 290 288 300 312 321 330 337 332 332 348 349 336 330 329 335 340 341 341 1 7 6 9 14 11 9 15 21 15 24 32 35 36 32 30 23
283 282 282 274 278 277 270 268 284 302 312 313 328 312 294 324 353 345 341 335 333 333 343 354 357 10 11 9 10 13 15 17 21 23 27 29 27 30 33 29 26 25
344 332 321 308 289 283 281 286 294 309 304 293 280 281 299 316 321 349 344 339 338 339 352 5 14 16 8 9 8 12 13 8 28 23 24 29 25 23 18 17 15 10
5 356 342 323 312 306 305 308 307 296 292 288 286 292 293 294 303 347 5 347 345 353 10 22 35 24 2 7 8 9 13 1 23 24 20 14 16 11 6 4 0 355
337 340 335 323 317 315 320 322 313 303 298 285 275 261 253 255 249 222 51 352 338 353 21 64 71 23 4 2 3 7 2 344 4 18 16 11 4 355 352 350 344 340
309 318 322 322 319 323 329 324 310 296 277 261 256 248 251 262 267 247 204 278 345 342 19 70 102 16 352 354 352 355 332 336 341 347 358 3 359 342 335 332 327 327
295 305 312 313 316 328 330 317 297 273 266 256 247 235 226 221 216 209 204 190 94 18 358 64 103 320 328 337 342 342 338 334 325 328 346 344 338 330 320 319 324 337
286 295 303 308 314 321 319 312 295 277 262 251 235 222 208 207 208 203 194 190 183 181 134 64 177 265 313 330 338 337 334 324 321 325 333 329 318 320 317 315 315 317
276 288 295 300 306 309 307 305 285 267 262 259 242 222 211 209 206 201 193 192 197 200 204 213 242 258 294 331 333 335 334 320 313 314 318 312 306 307 308 309 310 309